Location: Standeford and Andreas Observatories
(44.1397°N, 93.9969°W)
Time: 04:48:13
(UTC-05:00)

Cosmos 1500 Rocket - Visible Passes

Search period start: 19 September 2014 00:00
Search period end: 29 September 2014 00:00
Orbit: 606 x 632 km, 82.5° (Epoch: 18 September)

Date Brightness Start Highest point End Pass type
(mag) Time Alt. Az. Time Alt. Az. Time Alt. Az.
19 Sep 4.3 19:42:39 10° NNW 19:47:05 61° W 19:51:28 10° S visible
20 Sep 5.6 20:00:23 10° NNW 20:04:24 33° W 20:08:23 10° SSW visible
21 Sep 6.7 20:18:31 10° NW 20:21:38 19° W 20:24:43 10° SW visible
22 Sep 7.4 20:38:11 10° WNW 20:38:45 10° W 20:39:20 10° W visible
24 Sep 5.9 19:32:23 10° NNW 19:36:19 31° W 19:40:13 10° SSW visible
25 Sep 7.1 06:29:06 10° ESE 06:31:34 15° E 06:34:04 10° NE visible
25 Sep 6.9 19:50:34 10° NW 19:53:32 18° W 19:56:29 10° SW visible
